COSMOS 2251 DEB, 38487

Orbit data source: Space-Track

COSMOS 2251 DEB, 38487 is space debris in LEO originally from a launch on Wed, 16 Jun 1993 UTC launched from the Plesetsk Missile And Space Complex (PKMTR). The debris from Iridium 33, an American commercial communications satellite, has been tracked extensively since its accidental collision with the defunct Russian satellite Cosmos 2251 in 2009. This event, occurring at high speed in low Earth orbit (LEO), generated thousands of pieces of space debris, significantly increasing the risk of further collisions. The Iridium 33 debris cloud has impacted space traffic management and orbital debris mitigation strategies, making it a subject of ongoing study in space situational awareness.

Loading next visibility...
Identifier
38487, 1993-036BTX
Orbit
LEO
Country
Flag of CISCIS
Related business
Manufacturer
Unknown
Mission
Spacecraft
Bus & Motor
Unknown
Mass
Unknown
Launch date (UTC)
1993-06-16 (33 years ago)
Launch vehicle
Unknown
Launch site
Plesetsk Missile And Space Complex (PKMTR)
Object type
Payload
Rocket body
Debris
Shape & HBR
Unknown shape, 0.1 m
Radar Cross Section
Small (<0.1 m²)

Expand to show TLE details & history
Last TLE update: 2 weeks ago

TLE from 2 weeks ago
0 COSMOS 2251 DEB
1 38487U 93036BTX 26197.68789287  .00059138  00000-0  11862-2 0  9997
2 38487  73.9617 292.0987 0016961  23.8809 336.3185 15.46264896701036
Epoch: 2026-07-16T16:30Z
TLE epoch observation values (Epoch: 2026-07-16T16:30:33.943Z)
Latitude
-0.00001°
Longitude
109.9315°
Altitude
419.833 km
Speed
7.665 km/s
True Right ascension
19h 28m 23s
True Declination
0° 00' 00"
Sunlit
Object was in full shadow at epoch
Visualization orbit readout
Latitude
Unknown
Longitude
Unknown
Altitude
Unknown
Speed
Unknown
Apparent Right ascension
Unknown
Apparent Declination
Unknown
Sunlit
N/A
Visualization observer readout
Local Sidereal Time
08:31:00
Azimuth
Unknown
Elevation
Unknown
Doppler factor
Unknown
Orbital elements
Apogee altitude
436.713 km
Perigee altitude
413.635 km
Semi-major axis
6,803.311 km
Eccentricity
0.0017
Inclination
73.9617°
RAAN
292.0987°
Arg. of periapsis
23.8809°
True anomaly
336.24028°
Mean anomaly
336.3185°
Eccentric anomaly
336.27941°
Mean motion
3.86779 °/min
Orbital period
93.08 mins
BSTAR
0.0011862
Loading maneuver chart data...
Computing Atmospheric mass density...

Documentation

Showing up to 5 results
|